Volver al catálogo

CZ-6A DEB

ActivoPO
NORAD 60834·DEBRIS·🇨🇳 China

Lanzado Aug 6, 2024 desde Taiyuan Satellite Launch Center

Loading…

Próximos Pases (próximas 24 horas)

TLE

ActualizadoSource: Space-Track

Época: Sep 14, 2026, 07:13 UTC

1 60834U 24140HM  26257.30121816  .00000031  00000-0  10747-4 0  9993
2 60834  89.0098 268.3164 0109843 315.4037  43.8345 14.04922720107001

Sigue CZ-6A DEB en tiempo real con AllMySat

Download on the App Store